HVDC transfer

From www.emi.ea.govt.nz provided by the Electricity Authority (New Zealand)
Run at: 20240519123318

Parameters
Date range,05 Apr 2020 - 05 Apr 2020
Time scale,Trading period
Show,Average flow (MW)

Period start,Period end,Trading period,Direction,Energy transfer (GWh),Peak flow (MW),Average flow (MW)
05/04/2020 00:00:00,05/04/2020 00:30:00,1,Northward at Haywards,0.026,51,51
05/04/2020 00:30:00,05/04/2020 01:00:00,2,Northward at Haywards,0.032,64,64
05/04/2020 01:00:00,05/04/2020 01:30:00,3,Northward at Haywards,0.041,82,82
05/04/2020 01:30:00,05/04/2020 02:00:00,4,Northward at Haywards,0.021,41,41
05/04/2020 02:00:00,05/04/2020 02:30:00,5,Southward at Benmore,-0.002,-5,-3
05/04/2020 02:30:00,05/04/2020 03:00:00,6,Southward at Benmore,-0.005,-11,-6
05/04/2020 02:00:00,05/04/2020 02:30:00,7,Southward at Benmore,-0.018,-37,-19
05/04/2020 02:30:00,05/04/2020 03:00:00,8,Southward at Benmore,-0.033,-66,-33
05/04/2020 03:00:00,05/04/2020 03:30:00,9,Southward at Benmore,-0.026,-52,-52
05/04/2020 03:30:00,05/04/2020 04:00:00,10,Southward at Benmore,-0.019,-39,-39
05/04/2020 04:00:00,05/04/2020 04:30:00,11,Southward at Benmore,-0.002,-5,-5
05/04/2020 04:30:00,05/04/2020 05:00:00,12,Northward at Haywards,0.003,5,5
05/04/2020 05:00:00,05/04/2020 05:30:00,13,Northward at Haywards,0.022,44,44
05/04/2020 05:30:00,05/04/2020 06:00:00,14,Northward at Haywards,0.041,81,81
05/04/2020 06:00:00,05/04/2020 06:30:00,15,Northward at Haywards,0.089,177,177
05/04/2020 06:30:00,05/04/2020 07:00:00,16,Northward at Haywards,0.097,194,194
05/04/2020 07:00:00,05/04/2020 07:30:00,17,Northward at Haywards,0.139,277,277
05/04/2020 07:30:00,05/04/2020 08:00:00,18,Northward at Haywards,0.170,339,339
05/04/2020 08:00:00,05/04/2020 08:30:00,19,Northward at Haywards,0.153,305,305
05/04/2020 08:30:00,05/04/2020 09:00:00,20,Northward at Haywards,0.139,277,277
05/04/2020 09:00:00,05/04/2020 09:30:00,21,Northward at Haywards,0.178,355,355
05/04/2020 09:30:00,05/04/2020 10:00:00,22,Northward at Haywards,0.174,347,347
05/04/2020 10:00:00,05/04/2020 10:30:00,23,Northward at Haywards,0.186,371,371
05/04/2020 10:30:00,05/04/2020 11:00:00,24,Northward at Haywards,0.175,350,350
05/04/2020 11:00:00,05/04/2020 11:30:00,25,Northward at Haywards,0.175,350,350
05/04/2020 11:30:00,05/04/2020 12:00:00,26,Northward at Haywards,0.189,377,377
05/04/2020 12:00:00,05/04/2020 12:30:00,27,Northward at Haywards,0.222,443,443
05/04/2020 12:30:00,05/04/2020 13:00:00,28,Northward at Haywards,0.217,433,433
05/04/2020 13:00:00,05/04/2020 13:30:00,29,Northward at Haywards,0.187,373,373
05/04/2020 13:30:00,05/04/2020 14:00:00,30,Northward at Haywards,0.155,310,310
05/04/2020 14:00:00,05/04/2020 14:30:00,31,Northward at Haywards,0.153,306,306
05/04/2020 14:30:00,05/04/2020 15:00:00,32,Northward at Haywards,0.156,312,312
05/04/2020 15:00:00,05/04/2020 15:30:00,33,Northward at Haywards,0.167,333,333
05/04/2020 15:30:00,05/04/2020 16:00:00,34,Northward at Haywards,0.185,369,369
05/04/2020 16:00:00,05/04/2020 16:30:00,35,Northward at Haywards,0.208,416,416
05/04/2020 16:30:00,05/04/2020 17:00:00,36,Northward at Haywards,0.248,495,495
05/04/2020 17:00:00,05/04/2020 17:30:00,37,Northward at Haywards,0.286,571,571
05/04/2020 17:30:00,05/04/2020 18:00:00,38,Northward at Haywards,0.271,541,541
05/04/2020 18:00:00,05/04/2020 18:30:00,39,Northward at Haywards,0.286,571,571
05/04/2020 18:30:00,05/04/2020 19:00:00,40,Northward at Haywards,0.289,577,577
05/04/2020 19:00:00,05/04/2020 19:30:00,41,Northward at Haywards,0.175,350,350
05/04/2020 19:30:00,05/04/2020 20:00:00,42,Northward at Haywards,0.158,316,316
05/04/2020 20:00:00,05/04/2020 20:30:00,43,Northward at Haywards,0.135,269,269
05/04/2020 20:30:00,05/04/2020 21:00:00,44,Northward at Haywards,0.165,330,330
05/04/2020 21:00:00,05/04/2020 21:30:00,45,Northward at Haywards,0.138,275,275
05/04/2020 21:30:00,05/04/2020 22:00:00,46,Northward at Haywards,0.148,295,295
05/04/2020 22:00:00,05/04/2020 22:30:00,47,Northward at Haywards,0.131,261,261
05/04/2020 22:30:00,05/04/2020 23:00:00,48,Northward at Haywards,0.108,215,215
05/04/2020 23:00:00,05/04/2020 23:30:00,49,Northward at Haywards,0.078,155,155
05/04/2020 23:30:00,06/04/2020 00:00:00,50,Northward at Haywards,0.063,126,126
